User: anonymous   Login
Location: Unspecified
(0.0000°N, 0.0000°E)
Time: 11:54:32
(UTC+00:00)
Language:

Interbol-2 - Orbit

View from above orbital plane
View from above orbital plane
View from above satellite
View from above satellite

Ground track
Ground track

The orbit data is extracted from the following two-line orbital elements,

1 24292U 96050B   18347.57068885 -.00000074 +00000-0 +00000-0 0  9991
2 24292 063.4747 035.7473 5328758 236.9185 334.4368 04.14706319337473
Epoch (UTC): 13 December 2018 13:41:47
Eccentricity: 0.5328758
inclination: 63.4747°
perigee height: 1266 km
apogee height: 18707 km
right ascension of ascending node: 35.7473°
argument of perigee: 236.9185°
revolutions per day: 4.14706319
mean anomaly at epoch: 334.4368°
orbit number at epoch: 33747

The dashed part of the orbit path shows where the satellite is in the earth's shadow,  

DLR